Theta_e
309 308 308 308 308 308 308 307 307 307 307 308 309 310 311 315 315 314 312 311 309 308 307 307 306 306 306 311 313 312 311 312 313 314 316 315 318 318 319 318 317 317 318
309 308 308 308 308 308 307 307 306 306 306 306 307 308 310 314 316 314 310 310 311 309 308 307 307 307 306 304 307 312 311 311 314 315 315 315 318 319 317 318 318 317 315
309 308 308 308 308 308 307 306 306 305 305 305 305 306 307 310 313 313 310 309 309 309 308 308 307 307 307 307 307 308 311 310 309 312 314 314 316 318 317 317 317 316 316
309 308 308 308 308 307 306 306 306 306 305 305 305 306 306 307 309 310 310 308 307 307 307 307 306 306 306 306 306 307 306 306 304 310 314 313 313 316 316 316 316 315 315
309 308 308 308 308 307 306 306 306 306 306 305 305 306 307 308 307 307 308 309 307 306 307 307 305 305 305 305 306 306 307 306 303 303 312 314 311 313 314 313 314 314 312
309 308 308 308 307 306 306 306 306 306 305 306 306 307 308 310 308 307 307 308 307 307 307 306 306 306 305 305 305 306 306 305 303 303 313 313 309 312 313 315 314 312 313
310 308 308 307 306 306 306 306 305 305 306 306 306 306 307 310 308 307 307 309 308 308 308 307 308 307 306 305 305 304 305 305 304 303 304 310 307 304 310 314 313 313 314
310 308 308 307 306 306 306 306 305 305 305 306 306 306 306 309 308 308 306 308 306 308 308 306 306 306 305 305 305 305 305 305 305 305 305 308 309 308 309 311 312 311 310
309 308 307 306 306 306 305 305 305 305 305 305 305 305 306 305 305 307 307 308 305 306 305 304 304 304 303 305 305 304 304 304 305 306 307 309 309 310 311 311 311 311 309
308 307 306 306 305 306 306 305 305 305 304 304 304 304 304 305 306 306 307 305 304 304 304 304 304 303 303 305 306 305 305 304 304 305 308 310 310 310 312 313 313 312 310
308 307 306 305 305 305 305 305 305 304 304 304 303 303 303 303 305 307 304 304 304 304 304 303 303 303 304 304 306 306 306 304 304 304 307 311 312 311 312 311 311 313 311
307 306 305 305 305 305 304 305 304 304 303 303 303 302 302 302 302 303 304 303 302 303 303 303 303 303 303 305 306 307 307 306 306 305 306 308 310 311 310 310 309 310 311
306 305 305 305 305 304 304 304 304 303 303 303 303 302 302 302 301 301 301 302 302 301 302 303 302 302 302 303 304 306 305 303 302 303 305 309 309 309 309 309 309 309 310
305 305 304 304 304 304 304 304 303 303 303 303 303 302 302 302 301 301 300 300 300 300 300 300 300 300 300 300 300 300 300 299 299 300 300 300 302 302 304 304 305 306 306
304 304 304 304 304 304 304 303 303 303 303 302 302 301 301 300 300 299 299 299 299 300 299 299 299 298 298 298 298 298 298 298 299 299 299 299 299 300 302 302 305 305 305
304 304 304 304 304 303 302 300 298 296 295 294 293 292 292 292 292 292 292 293 295 296 298 297 297 297 295 294 295 295 296 297 298 299 298 298 298 298 298 299 301 301 304
304 304 303 303 300 297 295 293 292 291 291 291 291 291 291 290 290 290 290 290 291 292 294 294 294 292 291 292 294 296 296 296 297 297 296 296 296 297 298 298 300 302 301
303 303 300 297 294 292 291 291 291 291 291 290 290 290 290 290 289 289 289 289 290 291 292 291 291 291 291 291 293 296 297 297 295 295 295 296 296 297 299 301 301 302 302
301 298 294 292 291 291 291 291 290 290 290 290 289 289 289 289 288 288 288 290 291 290 290 290 290 291 291 290 293 294 293 293 293 295 295 295 295 295 295 297 299 300 300
296 292 291 291 291 291 290 290 290 290 289 289 289 289 289 288 287 287 287 288 289 289 290 290 291 292 291 290 291 292 293 293 293 293 293 293 295 295 295 295 297 298 298
291 291 291 291 290 290 290 290 289 289 289 289 289 288 288 287 287 287 287 288 289 290 291 291 292 292 291 290 291 292 292 292 292 291 291 291 291 292 293 293 295 296 297
291 290 290 290 290 290 290 289 289 288 288 288 288 288 287 287 287 287 287 287 289 289 290 290 290 289 288 290 291 292 292 293 292 292 292 292 291 290 292 293 294 295 295
290 290 290 290 290 290 289 289 288 288 288 288 288 287 287 286 286 286 287 288 288 288 287 288 288 288 287 289 291 292 292 292 292 292 291 293 291 291 292 291 293 294 295
290 290 290 290 289 289 289 288 288 288 288 288 287 287 286 286 286 286 287 288 287 287 287 288 287 286 287 288 289 289 289 289 289 290 291 291 291 290 290 290 291 294 295
290 290 289 289 289 289 289 288 288 288 287 287 287 287 286 286 286 286 287 287 287 288 288 287 286 287 287 288 288 288 289 290 290 290 291 291 290 290 290 290 291 292 293
289 289 289 289 289 288 288 287 287 287 287 287 287 287 286 286 286 286 287 289 289 288 287 286 287 288 288 288 288 289 289 291 290 290 290 289 289 289 290 290 291 292 292
Wind_Speed
4 5 6 7 8 9 9 10 10 10 10 9 10 9 9 7 8 9 10 11 12 11 12 12 13 13 13 13 13 14 12 12 10 4 6 6 7 10 11 11 12 12 12
3 4 5 6 6 7 8 8 10 10 10 9 8 8 6 4 5 8 9 11 12 13 13 12 14 15 14 14 14 14 14 12 11 5 5 5 5 7 10 12 13 13 13
2 2 4 4 5 6 7 8 9 9 9 9 7 7 6 3 2 6 8 12 12 11 12 12 13 13 14 14 15 14 13 13 12 10 6 7 7 7 9 10 12 15 15
1 1 3 3 3 5 7 8 9 10 9 10 9 6 6 5 4 4 6 13 12 12 11 12 15 14 14 16 15 15 14 14 12 10 8 9 9 10 10 11 13 16 19
0 1 2 2 3 4 6 8 9 10 10 10 9 7 5 7 5 9 9 10 12 13 12 12 16 15 16 18 16 16 15 15 15 11 9 9 8 6 9 14 16 19 16
1 1 1 1 2 3 6 8 9 10 11 11 10 8 6 7 6 9 11 12 13 14 13 18 20 20 20 20 18 17 15 14 13 11 8 10 10 8 4 11 14 18 13
2 2 1 1 1 3 6 8 9 9 9 10 8 7 6 5 6 13 8 8 12 14 15 20 19 19 21 22 20 18 16 15 13 11 11 10 11 11 8 10 15 13 13
3 2 3 2 0 3 5 7 8 9 10 10 11 7 3 1 6 1 8 5 14 10 15 19 20 22 23 23 21 18 16 15 13 12 13 12 12 13 12 11 13 15 13
4 4 4 3 1 2 4 6 7 8 8 9 9 8 3 3 13 3 5 5 12 11 17 17 17 19 20 19 19 19 19 17 16 14 14 14 13 14 15 16 14 18 17
6 6 5 4 1 1 4 5 7 8 8 7 6 7 6 6 5 10 7 17 13 18 17 15 16 17 17 16 17 18 19 19 16 16 16 15 15 15 16 16 16 17 19
8 6 5 4 2 2 3 5 6 7 7 7 8 8 8 9 7 9 22 23 23 19 18 20 20 19 15 17 16 21 22 20 20 21 18 18 18 18 18 19 18 19 19
10 9 6 3 2 3 4 5 6 7 7 8 8 9 10 11 14 15 21 24 25 27 25 23 21 15 18 15 13 16 20 23 24 23 20 20 20 21 23 23 21 21 20
10 7 5 2 4 5 6 6 7 7 8 9 10 10 11 12 13 17 21 26 28 31 30 26 25 22 17 16 15 17 19 25 28 28 24 22 22 23 25 25 26 25 24
8 5 3 3 4 6 6 7 8 9 10 11 12 13 14 15 17 18 20 25 32 28 28 29 30 27 25 25 24 25 27 27 25 25 28 29 30 29 28 29 30 29 26
8 5 4 4 5 7 8 9 11 12 13 15 15 16 18 18 19 20 22 22 24 28 28 29 25 28 28 28 27 26 27 29 30 31 29 26 30 32 29 27 27 28 27
6 5 4 5 7 9 11 12 13 14 14 14 15 16 17 18 19 20 21 22 23 27 29 30 29 29 28 29 29 29 28 29 29 28 28 29 30 29 32 34 32 31 31
7 5 6 7 9 10 11 11 12 13 15 15 17 19 19 20 21 23 24 24 25 25 31 34 32 32 31 29 27 25 27 29 31 32 35 35 33 30 27 31 31 31 33
5 5 7 8 8 8 10 13 15 16 17 19 20 22 22 23 24 24 25 25 25 25 29 36 34 32 31 28 26 25 26 31 33 31 31 30 28 25 25 25 26 29 30
5 6 6 6 7 9 12 15 18 19 20 22 23 24 25 25 26 25 25 24 26 28 28 31 35 32 30 28 26 29 31 29 30 25 24 25 27 29 32 30 31 33 34
5 4 4 7 10 13 16 19 20 22 23 25 26 25 26 26 26 25 25 24 26 27 27 30 32 34 32 29 28 29 31 30 27 26 27 28 27 26 28 29 28 26 27
3 4 6 9 13 16 19 22 23 24 27 27 27 26 25 24 24 23 23 24 24 26 28 30 31 34 35 35 33 32 32 33 31 28 31 30 31 33 34 32 27 27 30
4 6 9 13 16 19 21 24 25 26 27 27 27 26 24 24 23 22 20 20 23 26 28 30 33 35 36 31 30 30 31 32 33 31 32 39 33 34 34 33 29 27 27
6 10 13 17 20 22 24 26 26 26 27 27 27 27 27 25 24 23 22 23 26 28 29 29 31 30 30 27 28 28 28 28 31 30 34 31 30 28 31 31 27 27 26
10 14 17 20 24 25 27 27 27 28 30 29 29 28 29 29 25 24 25 27 29 29 28 27 27 29 26 27 29 31 32 32 32 31 29 31 27 27 30 33 26 23 25
14 18 22 25 27 29 29 29 28 30 30 30 30 29 29 30 27 24 24 28 29 29 28 28 27 25 23 24 23 22 22 24 28 28 25 19 27 33 35 31 23 25 32
21 24 27 29 31 33 31 29 28 29 32 32 31 31 30 29 27 25 23 24 29 31 29 28 24 22 22 24 19 18 20 21 20 20 18 24 32 30 26 31 29 24 29
Wind_Direction
83 80 73 68 69 67 57 49 45 44 49 46 46 41 46 54 29 12 14 12 14 19 23 19 12 10 6 8 6 4 9 3 356 296 330 339 347 330 333 329 327 320 311
86 78 79 69 72 69 54 45 43 36 37 37 31 39 43 56 12 5 9 7 4 6 12 16 14 11 10 6 2 0 357 1 352 344 299 305 346 345 333 333 331 327 320
98 87 88 75 71 62 48 43 39 35 35 33 23 28 38 46 1 341 351 1 357 356 359 4 5 5 3 0 0 358 352 349 353 348 313 279 273 320 336 337 326 325 326
116 70 91 75 67 55 45 37 35 32 32 29 27 19 41 16 9 353 339 355 345 354 349 352 355 347 350 351 349 350 349 344 343 347 337 320 283 281 295 306 312 308 305
174 90 83 88 61 40 43 34 27 28 30 32 30 11 40 49 22 34 1 350 355 349 350 345 347 349 342 344 341 343 340 338 338 337 337 334 322 316 307 300 303 304 311
234 210 139 108 69 39 32 32 28 26 27 33 32 43 61 68 68 7 5 6 2 358 4 358 352 347 342 338 338 335 332 330 329 332 328 329 326 324 319 319 313 321 322
237 241 187 132 56 39 24 26 28 28 29 28 52 60 64 86 24 341 14 12 351 359 359 355 347 349 344 337 330 331 330 330 330 324 325 319 321 321 311 311 319 325 320
229 210 195 172 54 26 21 24 27 27 19 21 27 37 30 22 340 144 354 6 347 350 345 340 338 340 339 334 329 330 331 325 322 318 319 318 323 324 322 319 313 316 309
223 196 198 196 189 32 10 16 15 19 19 12 18 30 359 326 339 255 287 321 331 332 328 330 336 335 334 337 339 336 332 329 322 314 309 309 313 320 324 320 314 311 312
216 193 198 207 222 20 3 357 3 3 0 1 2 356 344 317 319 314 257 314 323 324 328 328 333 335 329 333 336 339 338 332 329 321 309 302 302 308 314 313 313 311 308
193 197 203 224 253 337 340 345 347 348 342 344 343 336 330 321 305 273 301 310 315 321 323 328 333 336 329 324 330 333 331 332 328 324 315 302 298 297 302 303 308 309 307
195 196 199 216 274 313 320 332 333 334 333 331 330 324 324 323 311 310 303 308 312 315 319 322 329 334 330 324 313 310 311 315 316 315 315 308 299 294 294 300 305 307 303
182 189 199 236 288 300 311 323 323 321 319 317 317 315 314 311 311 308 308 312 315 314 315 315 321 322 314 307 303 295 297 300 303 305 307 306 299 291 290 295 299 302 302
187 194 213 251 282 298 310 317 315 313 313 310 310 309 308 310 311 311 312 314 314 313 313 316 317 319 318 314 310 307 306 309 305 297 299 300 297 295 294 294 294 295 294
189 198 224 260 281 291 306 309 310 308 308 309 306 306 306 306 305 305 305 307 310 311 310 316 315 316 314 315 314 312 310 307 305 306 304 295 294 297 296 294 294 292 292
185 203 237 273 291 304 308 310 311 311 313 315 316 316 316 314 312 310 308 306 303 301 303 306 312 312 313 311 310 310 307 307 308 309 307 302 297 293 290 289 285 286 285
196 224 260 288 300 310 314 320 323 322 322 321 319 318 317 315 313 312 310 306 303 303 303 307 310 312 313 313 310 307 305 308 304 303 304 300 298 298 291 283 286 283 283
217 262 286 296 309 322 328 325 324 323 318 318 318 315 315 314 311 309 306 305 304 305 306 308 311 316 319 319 313 309 299 295 297 299 300 303 304 296 285 279 279 284 287
267 284 293 311 327 332 328 324 321 318 313 312 311 310 311 308 306 305 302 304 305 306 305 307 310 314 316 321 315 307 309 313 315 311 309 307 305 304 302 288 278 276 281
269 287 313 324 328 332 329 324 316 312 307 306 305 305 304 304 301 299 298 299 302 305 307 307 308 310 314 318 320 318 314 313 318 318 307 306 302 304 302 303 294 286 281
273 300 314 325 329 330 330 318 314 308 305 304 302 302 303 300 297 296 295 298 303 303 304 304 304 307 309 312 314 317 313 316 314 318 316 316 313 301 300 299 288 287 285
283 306 320 325 326 326 319 317 313 309 307 304 302 304 306 301 297 292 291 295 295 296 296 296 298 302 304 309 314 312 310 309 309 312 315 308 307 307 308 308 302 298 280
303 315 320 320 318 318 320 317 315 310 306 304 305 307 306 302 296 292 291 293 291 290 290 295 300 303 304 306 306 306 308 308 303 303 315 304 305 307 312 307 310 313 292
312 316 315 315 316 319 318 314 313 307 304 304 305 307 304 301 295 292 291 289 288 289 291 296 299 301 300 299 300 301 300 300 302 301 310 306 311 315 313 312 315 313 298
309 311 313 315 316 317 317 311 307 303 301 299 300 302 302 298 294 290 287 286 288 288 291 294 297 297 297 303 309 307 305 305 303 304 312 309 316 313 315 316 323 326 312
310 315 316 316 315 312 310 308 307 304 300 299 299 300 300 298 292 290 287 285 284 289 295 298 299 301 303 307 309 308 307 311 309 305 313 315 308 314 311 311 319 318 320